FALCONSAT-3 (30776 NORAD) Tracking and Keplerian Element Data

This shows tracking and keplerian element data for the satellite.

Feedback or suggestion? Click here.




ElementValue
Catalog30776
NameFALCONSAT-3
Epoch Orbit88263
Epoch Day14.10381917
Epoch Year2023
RAAN293.2362
Inclination35.4209
Eccentricity0.0010391
Argument of Perigee259.8307
Mean Anonmoly100.1269
Mean Motion16.02403991
Decay Rate0.00839565
L11 30776U 07006E 23014.10381917 .00839565 33689-3 13526-2 0 9993
L22 30776 35.4209 293.2362 0010391 259.8307 100.1269 16.02403991882634



Live tracking and technical data element details for FALCONSAT-3 (NORAD 30776). FALCONSAT-3 can be tracked NOW for your location showing map with azimuth and elevation plus other details from your city location.







IsCatalogInMostPopularTable: catalog: 30776, numindb: 536
Update: records affected: 1



GetName: 30776 FALCONSAT-3

Hit Count: updated at: Sat, 25 Jan 2025 00:16:53 GMT